星链-4267 (STARLINK-4267 )

导读

STARLINK-4267是美国太空探索技术公司(SpaceX)星链互联网卫星星座中的一员,于2022年6月17日发射升空。作为星链低轨卫星互联网项目的组成部分,它承担着为全球提供高速宽带互联网服务的任务,服役至今助力星链完成全球覆盖,支撑航天组网与天地互联网建设。

基本信息
目录编号:
52864
目录名称:
STARLINK-4267
国际标识:
2022-062AL
轨道中心:
EARTH
卫星名称:
星链-4267
卫星全名:
星链-4267 (STARLINK-4267 )
卫星状态:
在轨 (已飞行1461 天)
发射日期:
2022-06-17 UTC
国别 :
美国 (US)
星等 :
--
轨道信息
数据来源 国际轨道数据
星历时间: 2026-06-16T21:35:45+0800
22小时前
查看轨道信息
半长轴: 6917.9km
偏心率: 0.0001216
轨道倾角: 53.161°
近地点辐角 92.561°
升交点赤经 300.151°
平近点角 267.553°
近地点: 538.921km
远地点: 540.605km
周期: 95.438分钟
每日圈数: 15.088338
详细信息
固有亮度:
5
最大亮度:
2.5
卫星平台:
Starlink v1.5
覆盖范围:
全球
运营商:
太空探索技术公司
运营商所在国:
美国
制造商(研发单位):
太空探索技术公司
制造商所在国:
美国
使用方式:
暂无
卫星简介
星链(Starlink)计划是由太空探索技术公司(SpaceX)提出的一个巨型低轨卫星互联网星座项目,计划在2019年至2024年间在太空搭建由约1.2万颗卫星组成的“星链”网络,其中1584颗将部署在地球上空550千米处的近地轨道,并从2020年开始工作。该卫星仍在工作。
2D轨道图
3D轨道图
轨道高度分析图
轨道倾角分析图
轨道综合分析图
查看轨道综合分析图